This demonstration page uses our WeatherBlox Daily Observations layout. Learn more.

Left ArrowRight Arrow

Hourly Observations for September 8, 2020

Temp ( °F °C ) Dew Point ( °F °C ) Humidity (%) Winds ( mph kmh ) Pressure ( in mb ) Visibility ( mi km ) Precip ( " mm )
12:51 am 00:51 Clear 87 30.6 55 12.8 34 34 NW 14 22 29.48 998 10 16.0934 0 0
1:51 am 01:51 Clear 86 30 60 15.6 42 42 NW 14 22 29.48 998 10 16.0934 0 0
2:51 am 02:51 Clear 85 29.4 60 15.6 43 43 NW 15 24 29.48 998 10 16.0934 0 0
3:51 am 03:51 Clear 83 28.3 61 16.1 48 48 NNW 14 22 29.48 998 10 16.0934 0 0
4:51 am 04:51 Clear 83 28.3 63 17.2 51 51 NW 8 13 29.49 999 10 16.0934 0 0
5:51 am 05:51 Clear 82 27.8 62 16.7 51 51 W 7 11 29.51 999 10 16.0934 0 0
6:51 am 06:51 Sunny 82 27.8 63 17.2 53 53 W 8 13 29.52 1000 10 16.0934 0 0
7:51 am 07:51 Sunny 84 28.9 62 16.7 48 48 NNW 9 15 29.52 1000 10 16.0934 0 0
8:51 am 08:51 Sunny 87 30.6 63 17.2 45 45 NW 12 19 29.53 1000 10 16.0934 0 0
9:51 am 09:51 Sunny 88 31.1 63 17.2 43 43 undefined N/A 29.53 1000 10 16.0934 0 0
10:51 am 10:51 Sunny 91 32.8 62 16.7 38 38 VRB 3 6 29.52 1000 10 16.0934 0 0
11:51 am 11:51 Sunny 93 33.9 59 15 32 32 undefined N/A 29.49 999 10 16.0934 0 0
12:51 pm 12:51 Sunny 93 33.9 59 15 32 32 SW 8 13 29.46 998 10 16.0934 0 0
1:51 pm 13:51 Sunny 95 35 58 14.4 29 29 S 5 7 29.43 997 10 16.0934 0 0
2:51 pm 14:51 Mostly Sunny 96 35.6 57 13.9 27 27 S 8 13 29.4 996 10 16.0934 0 0
3:51 pm 15:51 Partly Cloudy 96 35.6 53 11.7 23 23 WNW 23 37 29.39 995 10 16.0934 0 0
4:51 pm 16:51 Mostly Sunny 94 34.4 56 13.3 28 28 WNW 26 43 29.39 995 10 16.0934 0 0
5:51 pm 17:51 Sunny 90 32.2 58 14.4 34 34 NW 23 37 29.42 996 10 16.0934 0 0
6:51 pm 18:51 Clear 87 30.6 58 14.4 37 37 WNW 18 30 29.45 997 10 16.0934 0 0
7:51 pm 19:51 Clear 86 30 58 14.4 39 39 WNW 20 31 29.47 998 10 16.0934 0 0
8:26 pm 20:26 Mostly Cloudy with Nearby Thunderstorms 84 28.9 61 16.1 46 46 WNW 26 43 29.43 997 10 16.0934 0 0
8:49 pm 20:49 Partly Cloudy 82 28 63 17 51 51 WNW 18 30 29.46 998 10 16.0934 0 0
8:51 pm 20:51 Partly Cloudy 83 28.3 61 16.1 48 48 WNW 21 33 29.5 999 10 16.0934 0 0
9:51 pm 21:51 Mostly Cloudy 79 26.1 63 17.2 58 58 WNW 17 28 29.53 1000 10 16.0934 0 0
10:51 pm 22:51 Mostly Cloudy 79 26.1 60 15.6 52 52 W 22 35 29.52 1000 10 16.0934 0.001 0.001
11:51 pm 23:51 Mostly Cloudy 78 25.6 55 12.8 45 45 WNW 16 26 29.53 1000 10 16.0934 0 0

Powered by AerisWeather